This demonstration page uses our WeatherBlox Daily Observations layout. Learn more.

Left ArrowRight Arrow

39.51506, -84.39828

Hourly Observations for June 26, 2015

Temp ( °F °C ) Dew Point ( °F °C ) Humidity (%) Winds ( mph kmh ) Pressure ( in mb ) Visibility ( mi km ) Precip ( " mm )
12:15 am 00:15 Partly Cloudy 70 20.9 66 18.8 88 88 N N/A 29.94 1014 10 16 N/A
12:35 am 00:35 Partly Cloudy 69 20.8 66 18.9 89 89 N N/A 29.94 1014 10 16 N/A
12:55 am 00:55 Partly Cloudy 69 20.8 66 18.8 88 88 N N/A 29.94 1014 10 16 N/A
1:15 am 01:15 Cloudy 71 21.4 67 19.5 89 89 N N/A 29.94 1014 7 11 N/A
1:35 am 01:35 Cloudy 70 21 66 19 88 88 N N/A 29.91 1013 7 11 N/A
1:55 am 01:55 Partly Cloudy 69 20.8 66 19 90 90 N N/A 29.91 1013 7 11 N/A
2:15 am 02:15 Partly Cloudy 69 20.8 66 19 90 90 N N/A 29.91 1013 10 16 N/A
2:35 am 02:35 Mostly Cloudy 71 21.6 67 19.5 88 88 N N/A 29.91 1013 10 16 N/A
2:55 am 02:55 Mostly Cloudy 74 23.6 70 21.1 86 86 N N/A 29.91 1013 10 16 N/A
3:15 am 03:15 Mostly Cloudy 74 23.6 70 21 85 85 N N/A 29.91 1013 10 16 N/A
3:35 am 03:35 Mostly Cloudy 74 23.6 70 21.1 86 86 N N/A 29.91 1013 10 16 N/A
3:55 am 03:55 Cloudy 74 23.6 70 21 85 85 N N/A 29.91 1013 10 16 N/A
4:15 am 04:15 Cloudy 74 23.6 70 21 85 85 N N/A 29.91 1013 10 16 N/A
4:35 am 04:35 Partly Cloudy 74 23.6 70 21 85 85 N N/A 29.91 1013 10 16 N/A
4:55 am 04:55 Mostly Cloudy 74 23.6 70 21.2 86 86 SW 7 11 29.91 1013 10 16 N/A
5:15 am 05:15 Mostly Cloudy 74 23.6 70 21.1 86 86 SW 3 6 29.91 1013 10 16 N/A
5:35 am 05:35 Partly Cloudy 74 23.6 70 21.3 87 87 N N/A 29.91 1013 10 16 N/A
5:55 am 05:55 Clear 73 22.9 69 20.6 87 87 N N/A 29.91 1013 10 16 N/A
6:15 am 06:15 Sunny with Mist and Fog 70 20.9 66 18.9 88 88 N N/A 29.91 1013 5 8 N/A
6:35 am 06:35 Partly Cloudy with Mist and Fog 69 20.8 66 19 90 90 N N/A 29.91 1013 5 8 N/A
6:55 am 06:55 Sunny 69 20.8 66 19 90 90 N N/A 29.91 1013 7 11 N/A
7:15 am 07:15 Sunny 71 21.6 67 19.7 89 89 NNW 6 9 29.94 1014 7 11 N/A
7:35 am 07:35 Sunny 72 22.3 69 20.5 90 90 NNE 3 6 29.94 1014 10 16 N/A
7:55 am 07:55 Sunny 74 23.6 71 21.5 88 88 N N/A 29.94 1014 10 16 N/A
8:15 am 08:15 Sunny 74 23.6 70 20.9 85 85 N N/A 29.94 1014 10 16 N/A
8:35 am 08:35 Sunny 76 24.7 70 21.2 81 81 NNW 3 6 29.94 1014 10 16 N/A
8:55 am 08:55 Partly Cloudy 75 24.1 68 20 78 78 N N/A 29.94 1014 10 16 N/A
9:15 am 09:15 Partly Cloudy N/A N/A N/A N N/A N/A 10 16 N/A
9:35 am 09:35 undefined N/A N/A N/A undefined N/A N/A N/A N/A
9:55 am 09:55 undefined N/A N/A N/A undefined N/A N/A N/A N/A
10:15 am 10:15 undefined 80 26.5 69 20.5 70 70 SSW 6 9 29.94 1014 10 16 N/A
10:35 am 10:35 Cloudy 79 26.3 70 20.9 72 72 SW 9 15 29.94 1014 10 16 N/A
10:55 am 10:55 Cloudy 77 25.1 69 20.6 76 76 SW 7 11 29.97 1015 10 16 N/A
11:15 am 11:15 Cloudy 78 25.3 69 20.3 74 74 WSW 3 6 29.94 1014 10 16 N/A
11:35 am 11:35 Cloudy 79 26.2 70 21.1 74 74 WSW 3 6 29.94 1014 10 16 N/A
11:55 am 11:55 Mostly Cloudy N/A N/A N/A undefined N/A N/A N/A N/A
12:15 pm 12:15 undefined N/A N/A N/A undefined N/A N/A N/A N/A
12:35 pm 12:35 undefined 77 25.1 70 20.9 78 78 E 10 17 29.94 1014 N/A N/A
12:55 pm 12:55 Cloudy 77 24.9 70 20.9 79 79 ENE 13 20 29.94 1014 10 16 N/A
1:15 pm 13:15 Cloudy 77 24.8 69 20.7 78 78 E 8 13 29.94 1014 10 16 N/A
1:35 pm 13:35 undefined 66 18.7 60 15.5 82 82 NNE 21 33 29.97 1015 N/A N/A
1:55 pm 13:55 Cloudy with Light Rain 65 18.5 61 16.3 87 87 N N/A 29.94 1014 7 11 N/A
2:15 pm 14:15 Cloudy 69 20.8 65 18.6 87 87 N 5 7 29.94 1014 10 16 N/A
3:15 pm 15:15 undefined 69 20.8 66 18.7 88 88 N 8 13 29.94 1014 N/A N/A
3:35 pm 15:35 Cloudy with Heavy Rain 69 20.8 66 18.9 89 89 NE 8 13 29.97 1015 1 1 N/A
3:55 pm 15:55 undefined N/A N/A N/A undefined N/A N/A N/A N/A
4:15 pm 16:15 undefined N/A N/A N/A NW 3 6 N/A N/A N/A
4:35 pm 16:35 undefined N/A N/A N/A N 8 13 N/A N/A N/A
4:55 pm 16:55 undefined N/A N/A N/A ESE 5 7 N/A N/A N/A
5:15 pm 17:15 undefined N/A N/A N/A undefined N/A N/A N/A N/A
5:35 pm 17:35 Partly Cloudy with Heavy Rain 69 20.8 66 19 90 90 ESE 6 9 29.91 1013 2 3 N/A
5:55 pm 17:55 Cloudy with Light Rain 69 20.8 66 19 90 90 E 3 6 29.91 1013 10 16 N/A
6:15 pm 18:15 Cloudy with Rain 69 20.8 66 18.7 88 88 N N/A 29.91 1013 7 11 N/A
6:35 pm 18:35 Cloudy with Light Rain 69 20.8 65 18.6 87 87 N N/A 29.91 1013 10 16 N/A
6:55 pm 18:55 Cloudy with Rain 69 20.8 66 18.7 88 88 N N/A 29.91 1013 10 16 N/A
7:15 pm 19:15 Cloudy with Light Rain 69 20.8 66 18.7 88 88 N N/A 29.91 1013 10 16 N/A
7:35 pm 19:35 Cloudy with Rain 69 20.8 66 18.7 88 88 SSE 6 9 29.88 1012 7 11 N/A
7:55 pm 19:55 Mostly Cloudy with Light Rain N/A N/A N/A undefined N/A N/A 10 16 N/A
8:15 pm 20:15 undefined N/A N/A N/A undefined N/A N/A N/A N/A
8:35 pm 20:35 undefined N/A N/A N/A undefined N/A N/A 10 16 N/A
8:55 pm 20:55 undefined N/A N/A N/A undefined N/A N/A N/A N/A
9:15 pm 21:15 undefined N/A N/A N/A undefined N/A N/A N/A N/A
9:35 pm 21:35 undefined 69 20.8 65 18.1 85 85 ESE 6 9 N/A 10 16 N/A
9:55 pm 21:55 Partly Cloudy 69 20.8 64 18 84 84 ESE 6 9 29.83 1010 10 16 N/A
10:15 pm 22:15 Partly Cloudy 69 20.8 64 18 84 84 N N/A 29.85 1011 10 16 N/A
10:35 pm 22:35 Partly Cloudy 69 20.8 65 18.1 85 85 E 5 7 29.85 1011 10 16 N/A
10:55 pm 22:55 Mostly Cloudy with Light Rain 69 20.8 65 18.4 86 86 SSE 5 7 29.85 1011 10 16 N/A
11:15 pm 23:15 Cloudy with Light Rain 69 20.8 65 18.5 87 87 SSE 6 9 29.85 1011 10 16 N/A
11:35 pm 23:35 Cloudy with Light Rain 69 20.8 65 18.5 87 87 SSE 7 11 29.85 1011 10 16 N/A
11:55 pm 23:55 undefined N/A N/A N/A undefined N/A N/A N/A N/A

Powered by AerisWeather